When you browse on this site, cookies collect data to enhance your experience and personalize the content and advertising you see.
Visit our Privacy Policy to learn more. By continuing to use the site, you agree to this use of cookies and data.

Hourly Weather Bratislava

Today, 11 July, Saturday

Time Temperature Precipitation Wind Pressure Humidity
00:00 +22°C° 0 mm 5 mps 748 mmHg 73%
01:00 +22°C° 0 mm 5 mps 748 mmHg 74%
02:00 +21°C° 0 mm 5 mps 748 mmHg 79%
03:00 +20°C° 0 mm 4 mps 748 mmHg 83%
04:00 +19°C° 0 mm 3 mps 748 mmHg 87%
05:00 +20°C° 0 mm 3 mps 748 mmHg 84%
06:00 +21°C° 0 mm 3 mps 748 mmHg 82%
07:00 +22°C° 0 mm 4 mps 749 mmHg 79%
08:00 +22°C° 0 mm 4 mps 749 mmHg 76%
09:00 +23°C° 0 mm 5 mps 749 mmHg 74%
10:00 +24°C° 0 mm 6 mps 749 mmHg 72%
11:00 +22°C° 0.6 mm 7 mps 750 mmHg 76%
12:00 +20°C° 0.6 mm 7 mps 750 mmHg 80%
13:00 +17°C° 0.6 mm 8 mps 750 mmHg 85%
14:00 +16°C° 0.3 mm 7 mps 750 mmHg 85%
15:00 +16°C° 0.3 mm 6 mps 750 mmHg 86%
16:00 +15°C° 0.3 mm 6 mps 751 mmHg 86%
17:00 +14°C° 0.7 mm 5 mps 751 mmHg 88%
18:00 +14°C° 0.7 mm 5 mps 751 mmHg 89%
19:00 +14°C° 0.7 mm 4 mps 751 mmHg 91%
20:00 +13°C° 0.2 mm 4 mps 751 mmHg 91%
21:00 +13°C° 0.2 mm 4 mps 752 mmHg 91%
22:00 +13°C° 0.2 mm 3 mps 752 mmHg 91%
23:00 +13°C° 0 mm 4 mps 752 mmHg 90%

Tomorrow, 12 July, Sunday

Time Temperature Precipitation Wind Pressure Humidity
00:00 +13°C° 0 mm 4 mps 752 mmHg 90%
01:00 +12°C° 0 mm 5 mps 752 mmHg 89%
02:00 +12°C° 0 mm 4 mps 752 mmHg 89%
03:00 +12°C° 0 mm 4 mps 752 mmHg 89%
04:00 +11°C° 0 mm 4 mps 752 mmHg 90%
05:00 +13°C° 0 mm 4 mps 753 mmHg 85%
06:00 +14°C° 0 mm 5 mps 753 mmHg 79%
07:00 +15°C° 0 mm 5 mps 753 mmHg 74%
08:00 +16°C° 0 mm 6 mps 753 mmHg 67%
09:00 +19°C° 0 mm 6 mps 753 mmHg 60%
10:00 +20°C° 0 mm 6 mps 754 mmHg 54%
11:00 +21°C° 0 mm 6 mps 754 mmHg 51%
12:00 +22°C° 0 mm 6 mps 754 mmHg 49%
13:00 +23°C° 0 mm 6 mps 754 mmHg 46%
14:00 +23°C° 0 mm 5 mps 754 mmHg 47%
15:00 +23°C° 0 mm 5 mps 753 mmHg 47%
16:00 +23°C° 0 mm 5 mps 753 mmHg 47%
17:00 +21°C° 0 mm 4 mps 753 mmHg 53%
18:00 +20°C° 0 mm 3 mps 754 mmHg 59%
19:00 +19°C° 0 mm 3 mps 754 mmHg 66%
20:00 +18°C° 0 mm 3 mps 754 mmHg 69%
21:00 +17°C° 0 mm 3 mps 754 mmHg 72%
22:00 +15°C° 0 mm 2 mps 754 mmHg 75%
23:00 +15°C° 0 mm 2 mps 754 mmHg 77%

Day after tomorrow, 13 July, Monday

Time Temperature Precipitation Wind Pressure Humidity
00:00 +14°C° 0 mm 2 mps 754 mmHg 78%
01:00 +14°C° 0 mm 2 mps 754 mmHg 80%
02:00 +13°C° 0 mm 2 mps 754 mmHg 82%
03:00 +13°C° 0 mm 2 mps 754 mmHg 84%
04:00 +12°C° 0 mm 2 mps 754 mmHg 86%
05:00 +13°C° 0 mm 3 mps 754 mmHg 81%
06:00 +14°C° 0 mm 3 mps 754 mmHg 75%
07:00 +17°C° 0 mm 3 mps 754 mmHg 70%
08:00 +19°C° 0 mm 3 mps 754 mmHg 62%
09:00 +20°C° 0 mm 3 mps 753 mmHg 55%
10:00 +22°C° 0 mm 3 mps 753 mmHg 47%
11:00 +24°C° 0 mm 3 mps 753 mmHg 45%
12:00 +24°C° 0 mm 3 mps 753 mmHg 43%
13:00 +25°C° 0 mm 3 mps 752 mmHg 42%
14:00 +25°C° 0 mm 3 mps 752 mmHg 43%
15:00 +25°C° 0 mm 3 mps 752 mmHg 43%
16:00 +25°C° 0 mm 3 mps 751 mmHg 44%
17:00 +22°C° 0 mm 3 mps 751 mmHg 52%
18:00 +21°C° 0 mm 3 mps 751 mmHg 59%
19:00 +19°C° 0 mm 2 mps 751 mmHg 66%
20:00 +18°C° 0 mm 2 mps 751 mmHg 68%
21:00 +17°C° 0 mm 2 mps 751 mmHg 69%
22:00 +15°C° 0 mm 2 mps 751 mmHg 71%
23:00 +15°C° 0 mm 2 mps 751 mmHg 72%

14 July, Tuesday

Time Temperature Precipitation Wind Pressure Humidity
00:00 +14°C° 0 mm 2 mps 751 mmHg 73%
01:00 +14°C° 0 mm 1 mps 751 mmHg 75%
02:00 +13°C° 0 mm 1 mps 751 mmHg 77%
03:00 +13°C° 0 mm 1 mps 751 mmHg 79%
04:00 +12°C° 0 mm 1 mps 751 mmHg 81%
05:00 +14°C° 0 mm 1 mps 751 mmHg 77%
06:00 +15°C° 0 mm 1 mps 751 mmHg 72%
07:00 +18°C° 0 mm 1 mps 751 mmHg 68%
08:00 +20°C° 0 mm 1 mps 751 mmHg 63%
09:00 +22°C° 0 mm 1 mps 751 mmHg 57%
10:00 +23°C° 0 mm 1 mps 751 mmHg 52%
11:00 +24°C° 0 mm 1 mps 751 mmHg 48%
12:00 +25°C° 0 mm 1 mps 750 mmHg 44%
13:00 +26°C° 0 mm 1 mps 750 mmHg 41%
14:00 +26°C° 0 mm 1 mps 750 mmHg 40%
15:00 +26°C° 0 mm 1 mps 749 mmHg 40%
16:00 +26°C° 0 mm 1 mps 749 mmHg 40%
17:00 +25°C° 0 mm 1 mps 749 mmHg 46%
18:00 +23°C° 0 mm 1 mps 749 mmHg 52%
19:00 +22°C° 0 mm 1 mps 749 mmHg 57%
20:00 +21°C° 0 mm 1 mps 749 mmHg 60%
21:00 +20°C° 0 mm 1 mps 749 mmHg 63%
22:00 +18°C° 0 mm 1 mps 749 mmHg 66%
23:00 +18°C° 0 mm 1 mps 749 mmHg 70%

15 July, Wednesday

Time Temperature Precipitation Wind Pressure Humidity
00:00 +16°C° 0 mm 1 mps 749 mmHg 73%
01:00 +16°C° 0 mm 1 mps 749 mmHg 76%
02:00 +15°C° 0 mm 2 mps 749 mmHg 77%
03:00 +15°C° 0 mm 2 mps 749 mmHg 78%
04:00 +15°C° 0 mm 2 mps 749 mmHg 78%
05:00 +16°C° 0 mm 2 mps 749 mmHg 75%
06:00 +17°C° 0 mm 2 mps 749 mmHg 71%
07:00 +19°C° 0 mm 2 mps 749 mmHg 67%
08:00 +20°C° 0 mm 2 mps 749 mmHg 62%
09:00 +22°C° 0 mm 3 mps 749 mmHg 58%
10:00 +25°C° 0 mm 3 mps 749 mmHg 53%
11:00 +26°C° 0 mm 3 mps 749 mmHg 50%
12:00 +27°C° 0 mm 3 mps 749 mmHg 47%
13:00 +28°C° 0 mm 3 mps 749 mmHg 45%
14:00 +28°C° 0 mm 3 mps 748 mmHg 47%
15:00 +28°C° 0 mm 3 mps 748 mmHg 49%
16:00 +27°C° 0 mm 3 mps 748 mmHg 51%
17:00 +26°C° 0 mm 2 mps 748 mmHg 55%
18:00 +25°C° 0 mm 2 mps 748 mmHg 59%
19:00 +24°C° 0 mm 2 mps 748 mmHg 63%
20:00 +23°C° 0 mm 2 mps 748 mmHg 66%
21:00 +21°C° 0 mm 2 mps 748 mmHg 68%
22:00 +19°C° 0 mm 2 mps 748 mmHg 71%
23:00 +19°C° 0 mm 2 mps 749 mmHg 72%

16 July, Thursday

Time Temperature Precipitation Wind Pressure Humidity
00:00 +18°C° 0 mm 2 mps 749 mmHg 74%
01:00 +18°C° 0 mm 2 mps 749 mmHg 75%
02:00 +18°C° 0 mm 2 mps 749 mmHg 76%
03:00 +18°C° 0 mm 2 mps 749 mmHg 77%
04:00 +18°C° 0 mm 2 mps 749 mmHg 77%
05:00 +19°C° 0 mm 3 mps 749 mmHg 76%
06:00 +19°C° 0 mm 3 mps 749 mmHg 74%
07:00 +20°C° 0 mm 4 mps 749 mmHg 72%
08:00 +20°C° 0 mm 4 mps 749 mmHg 72%
09:00 +20°C° 0 mm 3 mps 749 mmHg 73%
10:00 +21°C° 0 mm 3 mps 750 mmHg 73%
11:00 +22°C° 0.1 mm 4 mps 750 mmHg 67%
12:00 +23°C° 0.1 mm 5 mps 749 mmHg 62%
13:00 +25°C° 0.1 mm 5 mps 749 mmHg 56%
14:00 +26°C° 0.1 mm 5 mps 749 mmHg 56%
15:00 +26°C° 0.1 mm 4 mps 749 mmHg 56%
16:00 +26°C° 0.1 mm 4 mps 749 mmHg 55%
17:00 +25°C° 0.1 mm 3 mps 749 mmHg 61%
18:00 +24°C° 0.1 mm 3 mps 749 mmHg 67%
19:00 +23°C° 0.1 mm 2 mps 749 mmHg 73%
20:00 +21°C° 0 mm 2 mps 749 mmHg 75%
21:00 +20°C° 0 mm 2 mps 749 mmHg 78%
22:00 +19°C° 0 mm 2 mps 749 mmHg 80%
23:00 +18°C° 0 mm 2 mps 749 mmHg 81%
Show more